Content
SEND FEEDBACK

Daily
Averages
Monthly
Summary
Canada

MONTREAL, QUEBEC


Home > North America > Canada > Quebec
Elevation: 118 feet     Latitude: 45 28N     Longitude: 073 45W

WEATHER
 
SELECT A DAY
Number of Records: 198,461;   Date Range: 1/1/95 - 8/20/14
 
SHARE

PRINT THIS DATA

[ ← Previous Day ]
WEATHER ALMANAC - DECEMBER 8, 2013
[ Next Day → ]
[ °C ]   °F
Weather ElementAverageHighLow
Temperature21.1 °F26.6 °F (3:00 pm)14 °F (7:00 am)
Dewpoint8.7 °F10.4 °F (8:00 am)5 °F (1:00 pm)
Humidity58 %79 % (7:00 am)28 % (1:00 pm)
Barometer30.54 in30.61 in (10:00 am)30.49 in (11:00 pm)
Wind Speed5.3 mph9.2 mph (1:00 am)
Weather ElementAverage
Visibility19.4 mi
Wind DirectionSW (223.3 °)

Weather ElementTotal
Precipitation---
Heating Degree Days44.7 (Base 65)
Averaged from 27 records on December 8, 2013
WEATHER CONDITIONS BREAKOUT
WIND DIRECTION BREAKOUT
WEATHER BY HOUR - DECEMBER 8, 2013
[ °C ]   °F
Local TimeTemperatureDewpointHumidityBarometerVisibilityWind DirectionWind SpeedGust SpeedPrecipitationEventsConditions
1:00 AM20.0 °F8.0 °F46 %30.50 in15.0 miWest (270°)9.2 mph
1:00 AM19.4 °F8.6 °F63 %30.50 in15.0 miWest (270°)9.2 mphClear
2:00 AM17.6 °F8.6 °F68 %30.51 in15.0 miWest (260°)5.8 mphPartly Cloudy
3:00 AM17.6 °F8.6 °F68 %30.51 in15.0 miWest (280°)4.6 mphPartly Cloudy
4:00 AM15.8 °F8.6 °F73 %30.52 in15.0 miWNW (290°)3.5 mphClear
5:00 AM15.8 °F8.6 °F73 %30.52 in15.0 miWest (260°)4.6 mphClear
6:00 AM15.8 °F8.6 °F73 %30.55 in15.0 miWSW (250°)2.3 mphPartly Cloudy
7:00 AM14.0 °F9.0 °F72 %30.57 in15.0 miWSW (250°)4.6 mphMostly Cloudy
7:00 AM14.0 °F8.6 °F79 %30.57 in15.0 miWest (260°)4.6 mphMostly Cloudy
8:00 AM17.6 °F10.4 °F73 %30.58 in15.0 miWest (280°)3.5 mphMostly Cloudy
9:00 AM19.4 °F10.4 °F68 %30.58 in15.0 miNW (310°)5.8 mphMostly Cloudy
10:00 AM21.2 °F10.4 °F63 %30.61 in30.0 miWNW (290°)4.6 mphMostly Cloudy
11:00 AM21.2 °F8.6 °F58 %30.60 in30.0 miWest (280°)4.6 mphScattered Clouds
12:00 PM23.0 °F6.8 °F50 %30.57 in30.0 miSW (220°)3.5 mphPartly Cloudy
1:00 PM25.0 °F5.0 °F28 %30.57 in28.0 miWSW (240°)9.2 mphScattered Clouds
1:00 PM24.8 °F5.0 °F43 %30.57 in30.0 miWSW (250°)6.9 mphPartly Cloudy
2:00 PM24.8 °F5.0 °F43 %30.55 in30.0 miWest (270°)9.2 mphScattered Clouds
3:00 PM26.6 °F6.8 °F43 %30.55 in30.0 miWSW (250°)4.6 mphMostly Cloudy
4:00 PM24.8 °F8.6 °F50 %30.55 in30.0 miWSW (240°)4.6 mphMostly Cloudy
5:00 PM24.8 °F8.6 °F50 %30.56 in15.0 miSSW (210°)4.6 mphMostly Cloudy
6:00 PM23.0 °F10.4 °F59 %30.55 in15.0 miWSW (250°)3.5 mphScattered Clouds
7:00 PM23.0 °F10.0 °F42 %30.53 in15.0 miNE (40°)2.3 mphPartly Cloudy
7:00 PM23.0 °F10.4 °F59 %30.53 in15.0 miNE (40°)2.3 mphScattered Clouds
8:00 PM23.0 °F10.4 °F59 %30.53 in15.0 miSSE (150°)8.1 mphOvercast
9:00 PM24.8 °F10.4 °F54 %30.52 in15.0 miESE (110°)5.8 mphOvercast
10:00 PM24.8 °F10.4 °F54 %30.52 in15.0 miESE (110°)5.8 mphOvercast
11:00 PM24.8 °F10.4 °F54 %30.49 in15.0 miEast (100°)6.9 mphOvercast
Hourly data recorded from CYUL, located miles away from Montreal, Quebec







STORIES FROM OUR PARTNERS